• Em Portugal
  • Lista de países
  • Para 7 dias
  • Temperatura da água
  • Mapas de satélite
  • Mapa do tempo
  • Widgets de tempo
  • user-avatar
    Iniciar Sessão

    Previsão horária em Berezovec

    Hoje, 18 Agosto, Sábado

    Tempo Temperatura Precipitação Vento Pressão Humidade
    00:00 +16°C° 0 mm 3 m/s 745 mmHg 76%
    01:00 +16°C° 0 mm 3 m/s 746 mmHg 78%
    02:00 +16°C° 0 mm 2 m/s 746 mmHg 78%
    03:00 +15°C° 0 mm 2 m/s 746 mmHg 80%
    04:00 +15°C° 0 mm 2 m/s 746 mmHg 82%
    05:00 +15°C° 0 mm 2 m/s 746 mmHg 84%
    06:00 +17°C° 0 mm 3 m/s 746 mmHg 78%
    07:00 +19°C° 0 mm 3 m/s 746 mmHg 71%
    08:00 +20°C° 0 mm 3 m/s 747 mmHg 65%
    09:00 +21°C° 0 mm 4 m/s 747 mmHg 61%
    10:00 +22°C° 0 mm 4 m/s 747 mmHg 57%
    11:00 +23°C° 0 mm 4 m/s 747 mmHg 52%
    12:00 +25°C° 0 mm 4 m/s 746 mmHg 51%
    13:00 +25°C° 0 mm 4 m/s 746 mmHg 49%
    14:00 +26°C° 0 mm 4 m/s 746 mmHg 48%
    15:00 +25°C° 0 mm 3 m/s 746 mmHg 50%
    16:00 +25°C° 0 mm 3 m/s 746 mmHg 53%
    17:00 +25°C° 0 mm 2 m/s 746 mmHg 55%
    18:00 +23°C° 0 mm 2 m/s 746 mmHg 59%
    19:00 +20°C° 0 mm 2 m/s 746 mmHg 63%
    20:00 +19°C° 0 mm 2 m/s 746 mmHg 67%
    21:00 +18°C° 0 mm 2 m/s 746 mmHg 69%
    22:00 +18°C° 0 mm 2 m/s 746 mmHg 71%
    23:00 +17°C° 0 mm 2 m/s 746 mmHg 72%

    Amanhã, 19 Agosto, Domingo

    Tempo Temperatura Precipitação Vento Pressão Humidade
    00:00 +17°C° 0 mm 2 m/s 746 mmHg 74%
    01:00 +16°C° 0 mm 2 m/s 747 mmHg 75%
    02:00 +16°C° 0 mm 2 m/s 747 mmHg 76%
    03:00 +15°C° 0 mm 2 m/s 747 mmHg 77%
    04:00 +15°C° 0 mm 2 m/s 747 mmHg 78%
    05:00 +15°C° 0 mm 2 m/s 747 mmHg 79%
    06:00 +17°C° 0 mm 2 m/s 747 mmHg 73%
    07:00 +18°C° 0 mm 2 m/s 747 mmHg 67%
    08:00 +20°C° 0 mm 2 m/s 747 mmHg 61%
    09:00 +21°C° 0 mm 2 m/s 747 mmHg 56%
    10:00 +24°C° 0 mm 2 m/s 747 mmHg 52%
    11:00 +25°C° 0 mm 3 m/s 747 mmHg 47%
    12:00 +25°C° 0 mm 3 m/s 746 mmHg 45%
    13:00 +26°C° 0 mm 3 m/s 746 mmHg 44%
    14:00 +26°C° 0 mm 3 m/s 746 mmHg 42%
    15:00 +26°C° 0 mm 2 m/s 746 mmHg 45%
    16:00 +26°C° 0 mm 2 m/s 745 mmHg 48%
    17:00 +25°C° 0 mm 2 m/s 745 mmHg 51%
    18:00 +24°C° 0 mm 2 m/s 745 mmHg 53%
    19:00 +21°C° 0 mm 2 m/s 745 mmHg 56%
    20:00 +19°C° 0 mm 2 m/s 745 mmHg 59%
    21:00 +19°C° 0 mm 2 m/s 745 mmHg 60%
    22:00 +18°C° 0 mm 2 m/s 745 mmHg 62%
    23:00 +18°C° 0 mm 2 m/s 745 mmHg 63%

    Depois de amanhã, 20 Agosto, Segunda-feira

    Tempo Temperatura Precipitação Vento Pressão Humidade
    00:00 +17°C° 0 mm 2 m/s 744 mmHg 65%
    01:00 +17°C° 0 mm 2 m/s 744 mmHg 66%
    02:00 +16°C° 0 mm 2 m/s 744 mmHg 68%
    03:00 +16°C° 0 mm 3 m/s 744 mmHg 69%
    04:00 +16°C° 0 mm 3 m/s 744 mmHg 71%
    05:00 +16°C° 0 mm 3 m/s 744 mmHg 72%
    06:00 +18°C° 0 mm 3 m/s 744 mmHg 68%
    07:00 +19°C° 0 mm 3 m/s 744 mmHg 63%
    08:00 +21°C° 0 mm 4 m/s 744 mmHg 59%
    09:00 +23°C° 0 mm 4 m/s 744 mmHg 55%
    10:00 +25°C° 0 mm 4 m/s 744 mmHg 51%
    11:00 +27°C° 0 mm 4 m/s 744 mmHg 47%
    12:00 +27°C° 0 mm 4 m/s 743 mmHg 46%
    13:00 +28°C° 0 mm 4 m/s 743 mmHg 45%
    14:00 +28°C° 0 mm 4 m/s 743 mmHg 44%
    15:00 +28°C° 0 mm 4 m/s 743 mmHg 47%
    16:00 +27°C° 0 mm 3 m/s 742 mmHg 51%
    17:00 +27°C° 0 mm 3 m/s 742 mmHg 55%
    18:00 +25°C° 0 mm 3 m/s 742 mmHg 58%
    19:00 +22°C° 0 mm 3 m/s 742 mmHg 61%
    20:00 +21°C° 0 mm 3 m/s 742 mmHg 64%
    21:00 +20°C° 0 mm 3 m/s 742 mmHg 66%
    22:00 +20°C° 0 mm 3 m/s 742 mmHg 67%
    23:00 +19°C° 0 mm 3 m/s 742 mmHg 68%

    21 Agosto, Terça-feira

    Tempo Temperatura Precipitação Vento Pressão Humidade
    00:00 +19°C° 0 mm 3 m/s 742 mmHg 69%
    01:00 +18°C° 0 mm 3 m/s 742 mmHg 70%
    02:00 +18°C° 0 mm 3 m/s 742 mmHg 71%
    03:00 +18°C° 0 mm 3 m/s 741 mmHg 72%
    04:00 +17°C° 0 mm 3 m/s 741 mmHg 74%
    05:00 +17°C° 0 mm 3 m/s 741 mmHg 75%
    06:00 +19°C° 0 mm 3 m/s 741 mmHg 71%
    07:00 +20°C° 0 mm 3 m/s 741 mmHg 67%
    08:00 +22°C° 0 mm 4 m/s 741 mmHg 63%
    09:00 +25°C° 0 mm 4 m/s 741 mmHg 59%
    10:00 +26°C° 0 mm 5 m/s 741 mmHg 54%
    11:00 +28°C° 0 mm 6 m/s 741 mmHg 50%
    12:00 +28°C° 0,1 mm 6 m/s 740 mmHg 49%
    13:00 +28°C° 0,1 mm 6 m/s 740 mmHg 48%
    14:00 +29°C° 0,1 mm 7 m/s 739 mmHg 48%
    15:00 +28°C° 0 mm 6 m/s 739 mmHg 50%
    16:00 +28°C° 0 mm 5 m/s 739 mmHg 52%
    17:00 +27°C° 0 mm 4 m/s 739 mmHg 55%
    18:00 +26°C° 0 mm 4 m/s 738 mmHg 58%
    19:00 +25°C° 0 mm 5 m/s 738 mmHg 61%
    20:00 +22°C° 0 mm 5 m/s 738 mmHg 64%
    21:00 +21°C° 0,1 mm 4 m/s 738 mmHg 69%
    22:00 +21°C° 0,1 mm 4 m/s 738 mmHg 75%
    23:00 +20°C° 0,1 mm 4 m/s 738 mmHg 80%

    22 Agosto, Quarta-feira

    Tempo Temperatura Precipitação Vento Pressão Humidade
    00:00 +19°C° 0 mm 4 m/s 739 mmHg 84%
    01:00 +18°C° 0 mm 4 m/s 739 mmHg 87%
    02:00 +18°C° 0 mm 4 m/s 739 mmHg 90%
    03:00 +17°C° 0 mm 4 m/s 740 mmHg 90%
    04:00 +15°C° 0 mm 4 m/s 740 mmHg 90%
    05:00 +14°C° 0 mm 4 m/s 740 mmHg 90%
    06:00 +15°C° 0 mm 4 m/s 741 mmHg 82%
    07:00 +17°C° 0 mm 4 m/s 741 mmHg 73%
    08:00 +18°C° 0 mm 4 m/s 742 mmHg 65%
    09:00 +19°C° 0 mm 5 m/s 742 mmHg 60%
    10:00 +20°C° 0 mm 5 m/s 743 mmHg 55%
    11:00 +21°C° 0 mm 5 m/s 743 mmHg 50%
    12:00 +21°C° 0 mm 5 m/s 743 mmHg 48%
    13:00 +22°C° 0 mm 5 m/s 743 mmHg 46%
    14:00 +22°C° 0 mm 5 m/s 743 mmHg 44%
    15:00 +21°C° 0 mm 4 m/s 744 mmHg 47%
    16:00 +21°C° 0 mm 4 m/s 744 mmHg 49%
    17:00 +20°C° 0 mm 3 m/s 744 mmHg 52%
    18:00 +19°C° 0 mm 3 m/s 744 mmHg 56%
    19:00 +17°C° 0 mm 2 m/s 744 mmHg 60%
    20:00 +16°C° 0 mm 2 m/s 745 mmHg 64%
    21:00 +15°C° 0 mm 2 m/s 745 mmHg 66%
    22:00 +15°C° 0 mm 2 m/s 745 mmHg 69%
    23:00 +14°C° 0 mm 2 m/s 745 mmHg 71%

    23 Agosto, Quinta-feira

    Tempo Temperatura Precipitação Vento Pressão Humidade
    00:00 +14°C° 0 mm 2 m/s 746 mmHg 73%
    01:00 +13°C° 0 mm 2 m/s 746 mmHg 76%
    02:00 +13°C° 0 mm 1 m/s 746 mmHg 78%
    03:00 +12°C° 0 mm 1 m/s 746 mmHg 79%
    04:00 +12°C° 0 mm 1 m/s 746 mmHg 81%
    05:00 +12°C° 0 mm 1 m/s 746 mmHg 82%
    06:00 +14°C° 0 mm 1 m/s 746 mmHg 75%
    07:00 +16°C° 0 mm 1 m/s 747 mmHg 68%
    08:00 +18°C° 0 mm 1 m/s 747 mmHg 61%
    09:00 +19°C° 0 mm 1 m/s 747 mmHg 56%
    10:00 +21°C° 0 mm 1 m/s 746 mmHg 51%
    11:00 +22°C° 0 mm 1 m/s 746 mmHg 46%
    12:00 +21°C° 0 mm 2 m/s 746 mmHg 45%
    13:00 +23°C° 0 mm 2 m/s 746 mmHg 43%
    14:00 +23°C° 0 mm 2 m/s 746 mmHg 41%
    15:00 +23°C° 0 mm 2 m/s 746 mmHg 44%
    16:00 +23°C° 0 mm 2 m/s 745 mmHg 47%
    17:00 +23°C° 0 mm 1 m/s 745 mmHg 50%
    18:00 +21°C° 0 mm 1 m/s 745 mmHg 53%
    19:00 +19°C° 0 mm 1 m/s 745 mmHg 57%
    20:00 +18°C° 0 mm 1 m/s 745 mmHg 60%
    21:00 +16°C° 0 mm 1 m/s 745 mmHg 62%
    22:00 +16°C° 0 mm 1 m/s 745 mmHg 64%
    23:00 +15°C° 0 mm 1 m/s 745 mmHg 65%
    Mostrar mais